Theta_e
347 347 344 346 349 347 347 346 350 349 350 349 350 351 349 349 350 352 351 352 349 351 351 352 349 349 349 352 351 350 351 350 347 352 351 350 348 346 342 336 333 331 331
347 348 348 347 349 348 345 350 348 349 350 351 350 350 350 351 351 352 352 351 351 350 350 348 350 348 352 352 351 349 350 349 349 347 350 350 350 346 341 339 330 328 330
349 348 351 351 350 348 346 347 349 346 349 352 351 351 350 350 349 350 351 350 352 351 352 351 349 350 352 351 350 351 350 350 349 349 349 349 349 344 337 331 328 326 326
348 349 349 350 348 346 347 348 347 347 349 347 351 350 350 348 350 350 352 353 352 353 351 351 351 351 349 350 350 352 350 349 349 351 350 348 348 343 339 331 325 324 323
341 343 349 349 349 348 349 349 348 346 348 349 349 350 350 352 352 352 351 352 352 352 351 353 351 351 352 351 349 349 350 349 349 349 349 349 347 345 343 338 328 328 321
341 341 342 342 347 350 349 349 350 351 350 349 350 351 349 352 353 353 352 352 352 352 352 351 352 352 351 351 350 350 350 351 350 349 349 348 347 346 348 346 338 326 328
339 339 340 336 341 347 349 349 350 349 350 350 351 351 350 351 350 351 351 351 351 351 352 351 350 350 351 351 351 351 351 349 348 348 348 348 348 349 347 347 343 338 337
340 339 338 338 340 343 349 350 349 348 350 350 349 351 351 352 351 351 351 352 352 351 352 352 352 350 349 350 350 350 349 346 344 343 343 344 344 346 347 346 345 345 340
343 341 339 337 336 336 342 348 348 349 349 350 351 352 351 350 350 349 350 349 349 349 350 350 349 348 347 349 350 349 343 340 337 339 339 338 338 340 341 343 340 338 323
341 341 344 343 342 338 336 346 347 348 349 350 349 349 349 350 349 349 348 348 347 347 346 347 347 347 347 347 348 347 339 333 327 323 323 323 325 325 329 335 331 328 318
346 344 343 342 344 344 345 346 345 345 345 344 344 343 343 344 343 345 345 344 345 344 344 343 343 344 346 344 344 344 342 332 322 321 318 318 319 321 323 323 323 322 316
343 342 342 342 341 339 337 337 336 338 339 338 337 336 336 337 338 340 340 340 340 340 341 339 336 333 335 338 341 341 337 323 321 321 323 324 324 322 318 319 321 321 319
340 341 340 338 337 336 335 335 335 332 331 331 331 328 326 327 328 329 331 334 336 338 335 332 330 329 330 330 329 327 326 322 321 322 322 319 316 314 311 308 306 306 306
337 336 335 334 333 331 332 331 331 330 328 327 326 324 324 323 325 326 328 330 331 330 326 326 326 327 327 326 325 324 322 322 323 323 321 318 316 313 309 309 309 308 307
333 332 330 329 328 327 326 324 326 327 327 328 327 325 324 323 324 325 326 326 325 323 323 322 322 322 321 322 321 321 322 321 321 320 319 316 310 310 310 310 310 311 311
330 328 327 327 326 324 321 318 319 323 323 323 324 325 321 323 323 323 324 323 323 322 321 319 319 319 319 319 319 318 319 319 317 314 310 308 308 308 308 308 308 309 312
328 326 325 324 323 322 320 320 316 314 317 318 319 320 320 322 322 321 322 321 320 320 320 318 318 318 317 317 316 315 314 313 311 310 309 309 308 308 308 307 308 311 311
328 327 326 325 324 322 320 319 319 317 315 316 316 317 318 318 319 319 318 317 317 317 317 317 316 315 314 312 311 311 311 310 310 307 308 307 308 307 307 307 308 308 308
326 326 326 325 324 323 322 320 315 315 316 316 315 317 317 318 318 318 317 317 317 317 317 317 316 314 313 312 311 309 308 307 307 306 305 306 305 305 307 306 307 308 308
323 325 323 324 325 323 322 319 317 316 316 314 312 310 310 311 314 317 317 317 317 317 316 314 313 312 310 309 307 306 305 304 304 304 304 305 305 306 307 306 305 305 307
318 316 319 319 322 324 324 324 324 322 319 318 315 312 310 309 309 308 310 315 316 316 317 316 312 310 310 308 307 306 305 304 303 304 305 307 306 306 307 305 304 304 305
325 316 315 314 316 316 316 319 324 325 323 322 320 319 311 309 312 313 313 313 315 315 316 316 313 312 311 311 310 308 306 306 305 306 306 307 306 305 304 304 304 304 303
322 322 319 318 318 317 315 316 317 317 317 318 317 318 313 309 312 312 313 314 315 315 314 314 313 312 312 311 311 310 309 308 307 306 306 305 305 304 304 303 303 303 302
322 321 319 320 320 320 319 316 316 316 315 313 312 312 311 310 307 310 310 312 314 312 313 313 313 313 312 312 310 309 309 308 307 305 305 304 304 303 302 302 301 301 302
323 322 320 320 320 319 317 318 319 317 318 316 314 313 311 309 307 307 309 310 311 311 311 312 313 312 311 311 310 310 309 308 307 306 305 304 303 303 302 302 302 302 303
323 322 322 322 321 319 318 317 315 315 315 316 315 314 313 310 310 310 310 311 311 311 312 312 313 312 312 311 311 310 310 309 308 307 305 304 304 303 303 303 303 302 303
Wind_Speed
36 35 35 31 25 25 20 20 16 15 14 15 13 22 21 18 16 15 15 14 10 9 8 10 12 12 9 8 6 4 1 2 3 2 7 14 13 14 12 10 10 9 9
38 35 35 34 30 26 26 22 19 16 16 16 16 18 16 19 17 16 14 14 14 13 14 13 12 9 11 12 8 6 4 4 4 4 10 16 13 15 12 11 12 10 8
25 32 33 34 33 31 30 27 24 22 20 19 20 18 16 21 19 17 15 15 16 15 15 14 14 13 15 15 14 12 9 8 7 7 4 10 12 18 17 14 12 11 9
7 21 27 32 34 33 30 32 29 26 20 23 23 22 20 18 18 17 16 16 17 17 16 17 19 17 15 14 14 16 15 11 8 7 8 10 10 20 19 19 17 15 12
3 1 12 17 25 31 30 28 27 26 25 23 22 22 20 20 20 19 19 18 18 19 19 18 18 17 15 13 14 12 14 14 13 11 11 10 8 16 23 23 21 18 16
4 7 1 3 14 25 31 31 30 29 28 25 24 21 20 20 19 18 18 18 19 20 20 17 15 15 16 15 14 13 14 17 19 15 16 13 14 12 17 21 21 14 8
8 5 10 6 11 16 26 31 29 25 26 29 26 24 23 21 20 19 18 17 17 18 20 17 14 12 12 13 13 12 12 14 15 16 17 15 13 12 12 16 23 22 15
16 11 17 20 10 8 14 31 26 24 25 24 25 26 24 21 19 17 18 17 16 13 14 16 15 15 15 14 13 11 10 10 10 10 11 14 15 16 15 15 15 20 15
20 18 15 14 9 9 16 22 25 26 24 24 22 21 21 19 18 17 16 15 17 17 17 18 18 18 17 14 14 15 11 8 5 7 8 7 7 10 11 11 10 19 5
7 12 15 15 10 4 13 25 23 23 22 19 18 18 17 17 17 18 15 13 11 11 12 14 16 16 15 14 17 18 17 14 11 9 7 5 3 2 5 8 10 14 6
7 11 9 10 9 7 15 9 9 12 13 11 11 9 9 9 7 7 9 11 10 11 12 13 12 13 12 10 11 13 17 17 13 9 9 9 9 9 9 9 9 9 11
6 7 8 10 12 11 9 8 7 8 9 9 8 7 4 3 5 6 7 7 7 8 10 10 7 4 6 9 11 15 17 17 14 12 10 8 8 8 10 10 8 8 10
12 11 14 12 10 10 6 5 11 7 2 6 7 6 4 2 3 3 1 4 6 9 9 8 8 7 7 10 10 12 13 13 12 10 9 9 8 9 9 11 13 15 15
15 16 12 12 10 8 10 7 12 9 8 8 10 9 8 5 7 6 9 8 7 9 14 13 10 8 9 13 12 11 12 11 10 10 10 9 9 9 11 12 13 13 12
13 12 11 11 9 9 9 8 11 9 7 9 8 8 7 5 7 7 7 8 10 10 10 9 8 9 9 10 10 10 9 8 8 8 8 10 10 9 6 4 4 7 7
13 10 8 8 10 10 12 11 11 11 8 5 6 5 7 6 6 7 8 9 12 12 9 8 7 7 8 8 9 8 8 8 8 10 11 11 9 7 5 4 6 8 11
12 11 10 10 10 9 8 8 10 8 7 7 6 6 7 8 4 6 10 9 8 7 9 9 10 9 8 8 8 9 9 9 8 8 7 7 6 4 4 4 6 12 15
9 10 10 11 10 9 8 7 6 7 7 8 8 8 7 8 7 7 8 8 8 8 8 8 9 9 8 8 8 7 7 6 8 6 7 6 7 6 5 6 8 11 13
9 8 8 8 10 10 9 9 7 6 7 6 6 6 7 7 6 6 6 5 5 5 6 6 6 6 6 6 6 5 6 6 5 5 6 5 5 5 6 7 7 9 11
5 7 7 8 9 10 12 11 9 6 6 6 6 6 7 7 7 8 7 5 4 3 2 3 5 5 5 5 5 5 5 5 7 6 6 5 6 2 4 7 7 8 9
6 9 9 9 10 9 8 8 9 9 9 9 9 8 6 7 7 7 8 8 6 5 5 9 7 5 5 4 5 4 4 4 5 6 7 5 6 3 6 9 7 9 11
10 12 13 12 12 11 10 12 17 16 16 14 12 11 8 10 7 5 5 6 6 4 4 10 11 7 5 4 3 5 5 5 5 5 5 7 9 6 7 9 9 8 8
1 7 15 15 17 14 13 14 14 15 15 16 16 16 17 16 14 10 8 9 8 7 4 7 10 10 9 8 7 7 7 7 8 8 8 10 9 8 8 9 8 9 7
7 6 5 10 14 18 22 19 18 16 18 20 19 18 17 15 15 16 11 8 10 8 6 6 8 7 8 9 7 6 8 9 8 8 9 9 10 9 9 9 9 10 9
10 7 5 5 10 20 22 19 15 8 9 15 23 22 20 15 16 16 15 14 13 15 14 13 12 11 9 8 10 9 7 6 7 9 10 9 9 9 9 8 8 8 9
11 10 9 9 8 14 20 16 13 11 9 9 18 21 20 22 19 17 15 17 19 19 18 17 17 17 16 13 12 13 12 12 13 14 14 13 11 12 11 11 12 13 12
Wind_Direction
210 211 208 208 209 209 214 214 212 216 216 214 199 200 215 220 225 232 236 236 237 238 256 252 262 276 278 284 284 294 38 273 225 223 162 188 192 203 192 173 168 153 134
210 215 215 208 207 211 214 210 216 210 203 205 210 216 223 223 221 222 233 239 245 247 247 251 254 266 275 274 275 279 263 289 285 221 195 197 215 209 196 188 179 170 151
212 210 215 217 211 216 218 221 224 226 220 217 217 227 233 230 233 235 239 240 247 251 251 253 260 262 268 274 270 266 253 235 247 252 232 214 212 199 193 189 196 185 171
215 217 219 224 221 216 216 222 228 230 228 219 225 231 237 240 236 236 237 241 244 249 258 255 256 259 268 277 287 259 255 249 245 243 247 242 205 200 205 198 195 198 183
37 77 207 237 233 223 218 220 224 225 226 228 231 234 241 240 241 241 244 249 250 256 258 259 258 256 259 267 268 266 248 251 249 244 245 244 209 181 203 217 214 208 201
270 219 156 255 253 243 230 225 229 231 230 233 232 234 238 237 240 244 249 251 253 256 256 260 259 258 261 263 266 259 252 248 245 236 244 240 246 241 221 216 208 189 214
218 231 252 301 272 254 249 229 225 230 231 231 234 232 236 241 242 241 244 249 262 259 245 254 261 260 259 259 253 251 254 260 260 259 258 263 261 255 236 220 212 209 212
212 236 244 248 261 260 270 239 217 221 221 221 229 230 234 239 246 245 239 239 253 259 245 246 247 249 252 256 248 238 238 246 247 245 243 246 252 253 251 250 238 216 207
206 219 232 239 252 324 307 270 223 223 219 218 220 230 234 235 236 240 242 249 255 252 244 242 244 245 248 246 233 228 219 221 216 228 236 222 259 268 260 248 214 183 150
238 248 259 259 253 281 306 250 233 222 218 211 204 211 219 220 228 232 234 238 247 246 243 243 245 243 247 243 237 225 207 197 179 161 157 160 204 259 257 221 218 201 147
289 248 238 243 244 224 201 183 159 146 153 153 151 152 171 192 210 220 252 251 253 250 249 248 246 247 243 233 229 234 230 203 180 166 137 126 117 102 86 76 69 72 77
174 167 156 154 150 136 129 101 70 111 136 143 148 143 169 204 226 239 246 231 229 226 223 228 235 218 212 213 213 206 216 181 159 149 144 122 104 88 80 82 83 96 108
149 139 132 124 123 128 123 91 76 55 106 149 142 147 135 121 55 31 235 200 200 218 212 189 161 137 140 145 148 146 158 166 159 153 148 127 113 105 99 88 75 69 72
138 134 128 124 118 102 110 128 120 116 123 114 122 130 121 123 106 94 93 115 126 144 142 146 146 152 154 144 146 149 153 164 172 164 155 139 128 116 112 111 111 106 102
136 129 124 122 119 110 110 108 103 118 124 132 142 129 129 139 117 114 112 120 132 136 138 140 145 151 145 142 139 138 143 148 155 156 152 146 141 140 146 166 182 176 143
125 120 120 121 114 116 118 110 105 110 111 126 144 150 133 109 117 119 129 130 133 136 134 135 131 143 148 143 134 132 137 142 146 150 149 148 152 156 159 176 203 215 181
137 140 134 133 131 140 132 127 123 111 126 127 114 113 111 112 112 107 115 121 126 132 147 152 150 153 157 153 152 153 150 144 154 166 164 163 170 174 184 182 156 161 161
133 130 132 138 147 153 141 138 142 159 152 128 127 130 120 119 123 124 124 126 126 136 141 153 149 149 157 160 158 164 163 170 178 182 181 189 180 176 168 161 167 178 171
142 133 137 136 143 155 148 147 135 132 136 139 136 136 140 140 146 157 146 123 107 121 144 155 168 173 184 185 183 177 173 173 189 185 180 187 186 188 175 170 149 160 174
182 166 150 155 165 160 156 154 154 165 172 176 182 177 168 164 171 186 188 181 171 177 191 195 196 192 199 206 204 202 197 197 201 208 215 214 215 221 222 187 178 177 179
198 186 180 184 185 190 195 200 206 214 212 209 210 204 194 187 182 198 199 201 196 213 252 232 206 180 182 179 188 205 209 207 209 204 193 228 191 202 188 190 191 169 160
238 221 215 203 194 205 229 233 215 215 221 225 231 225 214 207 206 213 214 220 212 234 252 221 212 206 210 200 192 202 200 213 223 219 238 205 203 210 187 190 187 182 186
292 238 242 255 249 234 216 216 209 208 219 228 228 217 215 216 213 222 228 234 230 226 212 192 206 216 219 214 225 229 229 236 226 229 219 209 217 219 225 219 210 205 210
234 247 278 323 224 238 224 229 233 229 230 222 221 218 222 229 221 219 218 215 212 210 214 215 219 231 236 221 228 238 239 238 224 223 236 257 241 228 230 235 242 228 226
243 271 280 298 235 218 215 222 222 238 243 235 233 232 230 227 224 222 222 220 220 220 222 223 229 232 232 225 229 232 224 222 222 230 242 254 247 244 232 234 230 237 255
236 252 270 289 277 231 220 222 225 218 220 224 228 228 228 221 217 224 235 231 224 226 226 231 234 238 237 241 246 237 228 224 233 233 235 240 236 230 231 244 253 255 269